Regional Weather Roundup
Issued by NWS

Home | Current Version | Previous Version | Text Only | Print | Product List | Glossary Off
Versions: 1 2 3 4 5 6 7 8 9 10 11 12 13 14 15 16 17 18 19 20 21 22 23 24 25 26 27 28 29 30 31 32 33 34 35 36 37 38 39 40 41 42 43 44 45 46 47 48 49 50

000
ASUS43 KOAX 191810
RWRNE

WEATHER ROUNDUP FOR NEBRASKA
NATIONAL WEATHER SERVICE OMAHA NE
1200 PM CST SUN FEB 19 2017

NOTES: SATELLITE DATA IS BEING USED TO AUGMENT CLOUD COVER ABOVE
       12000 FEET.
       "FAIR" INDICATES FEW OR NO CLOUDS BELOW 12,000 FEET WITH NO
       SIGNIFICANT WEATHER AND/OR OBSTRUCTIONS TO VISIBILITY.

  * THESE STATIONS DO NOT REPORT WEATHER SUCH AS RAIN...SNOW OR FOG.

NEZ001>004-019>022-054>056-191900-
NEBRASKA PANHANDLE

CITY           SKY/WX    TMP DP  RH WIND       PRES   REMARKS
SCOTTSBLUFF    MOSUNNY   49  31  49 SE7       29.68R
6HR MIN TEMP:  28; 6HR MAX TEMP:  49;

ALLIANCE       MOSUNNY   51  32  48 S9        29.65S
6HR MIN TEMP:  23; 6HR MAX TEMP:  51;

CHADRON        MOSUNNY   63  33  32 W3        29.59S
6HR MIN TEMP:  33; 6HR MAX TEMP:  63;

KIMBALL        CLOUDY    56  33  42 SE6       29.69S
SIDNEY         CLOUDY    57  31  37 CALM      29.68S
6HR MIN TEMP:  28; 6HR MAX TEMP:  57;

$$

NEZ057>060-069>072-079>082-191900-
SOUTHWEST NEBRASKA

CITY           SKY/WX    TMP DP  RH WIND       PRES   REMARKS
NORTH PLATTE   MOSUNNY   62  41  46 SW15      29.71F
6HR MIN TEMP:  44; 6HR MAX TEMP:  62;

IMPERIAL       MOSUNNY   55  37  50 S6        29.71F
6HR MIN TEMP:  44; 6HR MAX TEMP:  55;

LEXINGTON      MOSUNNY   60  47  61 S14G26    29.75F
MCCOOK         MOSUNNY   59  46  62 S10G21    29.74F
6HR MIN TEMP:  47; 6HR MAX TEMP:  59;

OGALLALA       CLOUDY    60  35  39 S14G20    29.69R
$$

NEZ005>010-023>029-035>040-094-191900-
NORTH CENTRAL NEBRASKA

CITY           SKY/WX    TMP DP  RH WIND       PRES   REMARKS
VALENTINE      MOSUNNY   57  36  45 SW15      29.63F
6HR MIN TEMP:  41; 6HR MAX TEMP:  57;

AINSWORTH      MOSUNNY   60  43  53 S16G28    29.64F
BROKEN BOW     MOSUNNY   60  46  59 S24G39    29.69F
6HR MIN TEMP:  37; 6HR MAX TEMP:  61;

O`NEILL        MOSUNNY   59  46  60 S21       29.71S
ORD            MOSUNNY   61  45  55 S20G30    29.72F
6HR MIN TEMP:  34; 6HR MAX TEMP:  62;

THEDFORD       CLOUDY    61  40  46 S14       29.67F
$$

NEZ041-046>049-061>064-073>077-083>087-191900-
SOUTH CENTRAL NEBRASKA

CITY           SKY/WX    TMP DP  RH WIND       PRES   REMARKS
GRAND ISLAND   MOSUNNY   63  51  65 S20       29.78F
6HR MIN TEMP:  45; 6HR MAX TEMP:  63;

AURORA         CLOUDY    63  51  65 S20       29.80F
HASTINGS       MOSUNNY   65  47  52 S17G33    29.80F
6HR MIN TEMP:  44; 6HR MAX TEMP:  65;

HEBRON         MOSUNNY   64  51  62 S15       29.84F
HOLDREGE       MOSUNNY   60  46  59 S20G25    29.77F
KEARNEY *      MOSUNNY   63  46  55 S24G30    29.78S
YORK           MOSUNNY   64  50  59 S21       29.82F
$$

NEZ011>018-030>034-042>045-191900-
NORTHEAST NEBRASKA

CITY           SKY/WX    TMP DP  RH WIND       PRES   REMARKS
NORFOLK        MOSUNNY   61  49  64 S16G30    29.79F
6HR MIN TEMP:  39; 6HR MAX TEMP:  61;

ALBION         MOSUNNY   61  49  64 S16G23    29.78F
BLAIR          MOSUNNY   62  50  64 S14G25    29.84F
FREMONT        MOSUNNY   64  49  59 S17       29.84F
TEKAMAH        MOSUNNY   63  51  65 SE16      29.83
6HR MIN TEMP:  34; 6HR MAX TEMP:  63;

WAYNE          CLOUDY    56  49  74 S13       29.80F
$$

NEZ050>053-065>068-078-088>093-191900-
SOUTHEAST NEBRASKA

CITY           SKY/WX    TMP DP  RH WIND       PRES   REMARKS
LINCOLN        MOSUNNY   66  50  56 S23       29.85F
6HR MIN TEMP:  39; 6HR MAX TEMP:  66;

OMAHA EPPLEY   PTSUNNY   64  50  60 S22G28    29.87F
6HR MIN TEMP:  41; 6HR MAX TEMP:  64;

BEATRICE       CLOUDY    67  53  60 S21       29.86F
FALLS CITY     MOSUNNY   65  50  58 S10       29.92F
6HR MIN TEMP:  41; 6HR MAX TEMP:  65;

NEBRASKA CITY  MOSUNNY   63  46  54 S16       29.89F
PLATTSMOUTH    MOSUNNY   65  46  51 S13G21    29.88F
$$

NEZ044-045-051>053-067-191900-
OMAHA AREA

CITY           SKY/WX    TMP DP  RH WIND       PRES   REMARKS
OMAHA EPPLEY   PTSUNNY   64  50  60 S22G28    29.87F
6HR MIN TEMP:  41; 6HR MAX TEMP:  64;

BLAIR          MOSUNNY   62  50  64 S14G25    29.84F
FREMONT        MOSUNNY   64  49  59 S17       29.84F
MILLARD        MOSUNNY   67  52  58 S18G25    29.85F
OFFUTT AFB     MOSUNNY   65  52  64 S14       29.87F
PLATTSMOUTH    MOSUNNY   65  46  51 S13G21    29.88F
WAHOO          FAIR      65  49  56 S21G26    29.84F
$$




USA.gov is the U.S. government's official web portal to all federal, state and local government web resources and services.